Wind_Speed
29 27 27 26 26 25 24 23 23 22 21 21 21 21 21 21 22 22 22 22 22 23 23 24 24 24 24 25 25 26 25 25 25 25 25 25 26 26 27 27 28 28 28
30 28 28 27 26 26 25 25 24 24 23 22 22 21 22 22 22 23 23 24 24 25 25 26 26 26 26 27 27 27 27 26 26 27 27 27 28 28 29 29 30 30 30
30 29 28 27 28 27 27 26 25 24 25 24 24 23 23 24 25 25 25 25 26 27 27 27 27 28 29 29 29 29 29 28 29 29 29 30 30 30 31 31 32 32 33
32 30 29 28 29 29 29 29 27 27 26 25 25 25 25 25 26 27 27 28 28 28 28 29 29 30 31 31 31 31 31 31 31 31 31 32 32 32 33 33 34 34 34
33 32 30 29 29 29 30 29 29 28 28 28 27 27 27 27 28 29 29 30 30 30 30 30 31 31 32 32 32 32 33 33 33 33 33 34 34 34 35 35 35 36 36
32 32 30 29 29 30 31 31 31 30 30 29 29 29 29 30 30 31 30 31 32 32 33 33 33 33 34 34 34 34 34 35 35 35 36 36 37 37 37 37 37 38 38
32 32 31 31 31 32 33 33 33 32 32 31 31 31 30 30 30 32 32 33 33 34 34 34 35 35 35 35 36 36 36 37 37 38 38 38 39 39 39 39 39 39 40
33 32 32 31 32 32 33 34 35 35 34 33 33 32 32 33 32 32 33 34 34 35 35 36 36 36 37 37 37 37 38 38 39 40 40 40 41 41 41 41 41 42 42
33 33 34 34 33 33 34 35 35 36 35 35 34 34 34 34 35 35 34 35 36 36 37 38 38 39 39 39 39 39 40 40 40 41 41 42 42 42 43 43 43 44 45
32 34 34 35 35 34 34 35 36 37 37 37 37 37 38 37 37 37 37 37 38 38 38 38 39 40 40 40 41 42 42 42 42 43 43 44 44 45 45 46 46 46 46
33 34 34 35 36 36 35 35 35 37 37 37 38 39 39 39 39 38 39 39 40 39 40 39 40 40 41 42 42 43 43 44 44 45 45 46 47 47 48 48 48 48 48
35 34 35 35 36 37 38 38 38 38 38 39 39 40 40 40 40 40 39 40 40 41 41 41 41 41 42 43 44 44 45 46 47 47 48 48 49 49 49 49 49 49 49
35 36 35 35 36 37 38 39 39 39 39 40 41 41 42 43 42 42 42 42 42 42 42 43 43 43 44 45 46 47 47 48 49 49 50 50 51 51 51 51 50 50 50
34 36 36 36 37 37 39 40 40 40 41 41 42 43 44 44 45 44 44 44 44 44 44 45 46 46 46 47 48 49 49 50 50 51 52 52 52 51 51 51 51 51 51
33 34 35 37 38 38 39 40 41 41 41 42 42 43 44 45 46 47 47 46 46 46 46 47 48 49 49 49 49 50 51 52 52 53 53 53 53 52 52 52 52 52 52
34 35 34 36 38 39 40 41 41 41 42 42 43 44 45 47 48 49 49 48 48 49 49 49 50 51 51 51 51 52 52 52 53 53 53 53 52 52 53 53 53 53 53
36 37 38 38 39 40 40 41 42 43 44 45 46 47 48 49 50 50 50 50 51 52 52 51 52 52 52 52 52 52 53 53 53 53 53 53 54 54 54 54 54 54 54
39 40 40 39 39 40 41 42 43 44 45 46 47 48 49 50 51 51 52 52 53 54 54 54 54 54 54 53 53 53 54 54 54 54 54 54 55 55 55 55 55 55 54
40 41 41 41 41 42 42 44 45 46 47 47 48 48 49 50 51 52 53 53 54 55 55 55 54 54 54 54 54 54 55 55 55 55 55 55 55 55 55 55 55 54 54
41 42 43 44 44 45 45 45 46 47 48 48 48 49 50 51 51 52 52 53 54 54 54 54 54 54 54 54 55 55 56 56 56 56 56 56 56 56 56 55 55 54 54
43 44 44 45 45 46 47 47 48 48 49 49 51 51 51 51 51 52 52 53 53 54 54 55 54 54 54 54 55 56 56 56 56 56 57 57 57 56 56 55 54 54 54
44 45 46 46 46 47 47 48 49 50 50 51 51 51 51 51 52 52 52 53 54 54 55 55 56 56 55 56 56 56 56 57 56 57 57 57 57 56 56 55 54 54 54
45 46 46 47 47 48 49 49 50 51 51 51 52 52 52 52 52 52 53 53 54 55 56 56 56 56 56 57 57 57 57 57 57 56 56 56 56 55 54 54 54 54 54
47 47 48 49 49 50 51 51 52 53 53 53 53 53 53 53 54 54 54 55 55 56 57 57 57 57 57 57 57 57 57 56 55 55 55 55 54 54 53 54 54 54 54
48 49 50 51 51 52 52 53 53 53 53 52 52 53 53 54 54 55 56 56 56 56 56 56 56 56 56 56 56 56 55 55 55 54 54 54 53 53 53 53 53 53 53
49 50 51 51 51 52 52 53 53 53 52 52 52 53 54 54 55 56 56 56 55 55 55 55 55 55 55 55 55 54 54 54 54 53 53 53 53 53 52 52 52 52 52
Wind_Direction
225 227 228 230 232 234 236 240 242 248 254 259 263 264 266 269 272 273 276 278 280 282 284 286 286 286 287 288 288 290 292 293 293 293 294 295 295 296 296 294 294 293 293
228 230 232 234 236 237 239 242 244 250 255 259 263 265 268 269 272 275 276 278 281 282 283 284 284 285 286 287 288 289 289 289 290 290 291 293 294 294 294 293 293 292 291
229 231 233 236 239 241 243 243 247 253 256 261 264 266 268 271 274 274 276 278 280 281 282 282 283 284 285 285 286 286 286 287 287 288 289 291 292 293 293 292 291 291 290
230 231 234 237 239 242 244 246 249 255 258 262 265 266 269 273 274 275 276 278 280 281 281 282 282 283 284 284 284 284 285 285 285 286 287 288 290 291 292 293 292 291 290
231 234 236 239 240 243 245 247 251 256 259 262 263 266 269 274 275 274 274 277 279 281 281 282 283 283 283 284 284 284 285 284 284 285 286 287 289 290 291 291 291 290 290
232 235 236 239 241 244 246 248 252 257 260 262 264 267 271 273 275 274 275 277 278 280 281 282 282 283 283 284 284 284 284 284 283 284 285 287 288 288 289 290 290 289 289
235 238 240 241 243 246 248 251 254 258 261 262 265 269 272 273 275 276 276 278 279 280 280 281 282 283 283 284 284 284 284 284 284 284 285 286 287 287 289 289 289 289 288
238 241 244 246 248 250 251 253 256 259 262 263 265 269 272 273 274 277 278 279 279 279 281 281 281 282 283 284 284 284 284 284 284 284 285 286 287 287 288 288 289 288 288
242 245 247 250 252 255 256 257 259 260 262 264 265 268 271 273 275 276 277 278 278 279 280 280 280 281 282 282 282 283 283 284 284 285 285 286 287 287 287 287 288 288 287
241 247 249 252 255 257 260 261 262 262 263 265 267 269 271 273 275 276 277 278 278 279 280 279 280 280 280 280 281 282 283 283 283 284 285 286 286 287 286 286 287 287 287
241 246 250 253 256 258 260 262 263 264 264 266 268 270 272 273 275 276 277 277 278 279 279 280 280 280 280 281 281 282 282 281 283 284 285 285 286 287 287 287 287 287 287
245 248 251 253 256 259 262 263 264 266 266 267 269 271 272 273 275 276 277 278 278 278 279 279 281 281 281 281 280 281 281 282 283 284 285 285 286 287 287 287 286 287 287
249 251 252 255 257 261 263 264 264 267 268 270 270 271 273 273 274 276 278 279 278 278 278 278 280 280 281 280 280 281 282 284 284 284 285 285 286 286 286 287 286 286 287
251 252 254 257 259 261 262 264 266 267 269 270 272 272 273 274 275 276 278 278 278 278 278 279 279 280 280 281 281 282 282 283 284 285 285 285 286 286 287 287 287 287 287
254 254 256 258 260 262 264 264 265 267 270 272 273 274 274 275 276 277 278 278 278 278 278 279 279 280 281 281 282 282 283 284 285 285 284 285 285 286 286 287 287 287 287
257 258 259 261 262 263 265 265 267 269 271 273 274 275 275 276 277 278 278 278 279 280 280 281 281 281 281 281 282 283 284 284 285 285 284 284 285 286 287 287 287 287 287
259 260 262 264 265 265 265 267 270 272 273 275 275 276 277 277 277 277 278 278 279 280 281 281 282 281 281 282 282 283 283 283 284 284 285 285 286 286 287 287 287 287 287
261 262 265 266 266 267 268 270 272 273 274 276 277 278 278 278 278 278 278 279 279 280 281 281 282 282 282 282 282 282 282 283 283 284 285 285 286 286 286 287 287 288 288
262 263 264 265 266 268 270 271 272 274 275 276 277 278 278 278 278 278 279 279 280 280 280 281 281 281 282 282 282 282 282 283 283 284 284 285 286 286 287 287 288 288 288
263 263 264 266 267 269 271 272 273 274 275 276 277 278 278 278 278 279 279 280 280 280 280 280 280 280 281 282 282 282 282 283 283 284 285 285 286 287 287 287 287 287 287
264 265 267 268 269 270 272 273 274 275 276 276 277 278 278 279 279 279 280 280 280 280 280 280 280 280 281 282 282 282 283 283 284 284 284 285 286 286 287 287 287 287 287
266 267 268 269 270 272 273 275 276 276 276 277 277 277 278 279 280 280 280 281 281 281 281 281 281 281 281 282 282 283 284 283 283 284 284 285 286 286 286 286 286 286 286
267 268 269 271 272 273 274 275 275 276 277 277 277 278 278 279 280 280 280 281 282 283 282 282 282 282 282 282 283 284 284 283 283 283 283 285 285 285 285 285 286 286 285
269 270 271 271 272 273 274 275 276 276 276 277 278 278 279 279 280 280 280 281 282 283 282 282 282 282 282 283 283 283 283 283 283 283 283 283 284 285 285 285 286 285 285
269 270 271 272 272 273 274 275 275 276 276 277 278 279 280 281 281 282 282 282 282 283 283 283 283 283 283 284 284 284 283 283 283 282 282 283 283 284 284 285 285 285 284
270 271 271 271 273 274 274 275 276 276 277 278 279 279 280 280 281 282 282 283 283 283 283 283 284 284 284 284 284 284 284 284 283 283 282 282 282 283 284 284 284 284 285
Height
5810 5813 5815 5817 5819 5822 5823 5825 5826 5827 5829 5829 5830 5830 5830 5830 5830 5829 5829 5828 5828 5827 5826 5824 5823 5822 5821 5820 5819 5817 5816 5815 5813 5811 5810 5808 5807 5805 5803 5802 5800 5798 5797
5804 5807 5810 5812 5814 5816 5818 5820 5821 5823 5824 5824 5825 5825 5825 5825 5825 5824 5824 5823 5822 5822 5820 5819 5818 5817 5816 5815 5813 5812 5811 5809 5808 5806 5805 5803 5801 5799 5798 5796 5794 5792 5790
5799 5802 5805 5807 5809 5811 5813 5815 5816 5818 5819 5819 5820 5820 5820 5820 5819 5819 5818 5817 5817 5816 5815 5813 5812 5811 5810 5808 5807 5806 5805 5803 5802 5800 5799 5797 5795 5793 5791 5789 5788 5786 5784
5793 5796 5800 5802 5804 5806 5808 5810 5811 5812 5813 5814 5814 5814 5814 5814 5813 5813 5812 5811 5811 5810 5809 5807 5806 5804 5803 5802 5801 5799 5798 5797 5795 5794 5792 5790 5788 5787 5784 5782 5780 5778 5776
5788 5791 5794 5796 5798 5800 5802 5804 5805 5806 5807 5808 5808 5808 5808 5808 5807 5806 5806 5805 5804 5803 5802 5801 5799 5798 5797 5795 5794 5793 5791 5790 5788 5787 5785 5783 5781 5779 5777 5775 5773 5771 5769
5783 5785 5788 5790 5792 5794 5796 5798 5799 5800 5801 5802 5802 5802 5802 5801 5800 5800 5799 5798 5797 5796 5795 5794 5792 5791 5790 5788 5787 5785 5784 5782 5780 5779 5777 5775 5773 5771 5769 5767 5765 5762 5760
5777 5780 5782 5784 5786 5788 5790 5791 5793 5793 5794 5795 5795 5795 5795 5795 5794 5793 5792 5791 5790 5789 5787 5786 5785 5783 5782 5780 5779 5777 5776 5774 5772 5770 5769 5767 5765 5762 5760 5758 5756 5753 5751
5771 5774 5776 5778 5780 5782 5783 5785 5786 5787 5787 5788 5788 5788 5788 5788 5786 5785 5784 5783 5782 5781 5780 5778 5777 5775 5774 5772 5771 5769 5767 5765 5763 5761 5760 5757 5755 5753 5751 5749 5746 5744 5741
5765 5767 5770 5772 5773 5775 5777 5777 5778 5779 5780 5780 5780 5780 5780 5780 5779 5778 5776 5775 5774 5773 5771 5770 5768 5767 5765 5764 5762 5760 5758 5756 5754 5752 5750 5748 5745 5743 5741 5738 5736 5734 5731
5758 5761 5763 5765 5767 5768 5769 5770 5771 5772 5772 5772 5772 5772 5772 5771 5770 5769 5768 5766 5765 5764 5762 5761 5759 5758 5756 5754 5752 5750 5748 5746 5744 5742 5740 5737 5735 5733 5730 5728 5725 5723 5720
5751 5753 5755 5757 5759 5760 5762 5762 5763 5763 5764 5763 5764 5763 5762 5762 5761 5760 5759 5758 5756 5755 5753 5752 5750 5748 5746 5745 5743 5741 5738 5736 5734 5731 5729 5726 5724 5721 5719 5716 5714 5711 5708
5744 5746 5747 5749 5751 5752 5753 5754 5755 5755 5755 5755 5755 5754 5753 5752 5751 5750 5749 5748 5747 5745 5743 5742 5740 5738 5737 5734 5732 5730 5728 5725 5723 5721 5718 5715 5713 5710 5707 5704 5702 5699 5696
5736 5738 5739 5741 5742 5743 5744 5745 5745 5745 5746 5745 5745 5744 5743 5743 5741 5740 5739 5737 5736 5735 5733 5731 5730 5728 5725 5723 5721 5719 5716 5714 5711 5709 5706 5703 5701 5698 5695 5692 5689 5686 5684
5729 5730 5731 5732 5733 5734 5735 5736 5736 5736 5736 5735 5735 5734 5733 5732 5731 5730 5728 5727 5725 5724 5722 5721 5719 5716 5714 5712 5709 5707 5704 5702 5699 5697 5694 5691 5688 5685 5682 5679 5676 5673 5671
5721 5722 5723 5724 5724 5725 5726 5726 5726 5726 5725 5725 5724 5723 5722 5721 5720 5718 5716 5715 5714 5712 5711 5709 5706 5704 5702 5699 5696 5694 5692 5689 5686 5684 5681 5678 5675 5672 5669 5666 5663 5660 5657
5713 5714 5714 5715 5715 5715 5715 5716 5716 5715 5715 5714 5713 5712 5711 5709 5708 5706 5705 5703 5701 5699 5698 5696 5694 5691 5689 5686 5683 5681 5678 5676 5673 5670 5668 5665 5662 5659 5656 5653 5650 5647 5644
5704 5705 5705 5705 5705 5705 5705 5705 5704 5704 5703 5702 5701 5700 5698 5697 5695 5693 5692 5690 5688 5686 5684 5683 5680 5678 5675 5673 5670 5667 5665 5662 5660 5657 5654 5651 5648 5645 5642 5639 5636 5632 5629
5695 5695 5695 5695 5695 5695 5695 5694 5694 5693 5691 5690 5689 5687 5686 5684 5682 5680 5678 5676 5674 5672 5670 5669 5666 5664 5661 5659 5656 5653 5650 5648 5645 5643 5640 5637 5634 5631 5628 5625 5621 5618 5614
5684 5685 5685 5684 5684 5684 5683 5682 5682 5680 5679 5677 5676 5674 5672 5671 5669 5666 5664 5662 5660 5657 5655 5653 5652 5649 5647 5644 5642 5639 5636 5634 5631 5628 5625 5623 5619 5616 5613 5610 5606 5603 5599
5673 5673 5673 5673 5672 5672 5671 5670 5669 5668 5666 5665 5663 5661 5659 5657 5655 5652 5650 5648 5645 5643 5640 5638 5637 5634 5632 5629 5627 5624 5622 5619 5616 5613 5610 5607 5604 5601 5598 5595 5591 5588 5584
5661 5661 5661 5661 5660 5659 5658 5657 5656 5654 5653 5651 5649 5647 5645 5643 5641 5639 5636 5633 5631 5628 5626 5623 5622 5619 5617 5615 5612 5609 5607 5604 5601 5598 5595 5592 5589 5586 5583 5579 5576 5572 5569
5649 5649 5648 5648 5647 5646 5645 5644 5642 5641 5639 5637 5635 5633 5631 5629 5627 5624 5622 5619 5616 5614 5611 5609 5606 5604 5602 5599 5596 5593 5591 5589 5586 5583 5579 5576 5573 5570 5567 5564 5560 5557 5554
5636 5636 5635 5634 5634 5633 5632 5630 5628 5627 5625 5623 5621 5619 5617 5614 5612 5610 5607 5605 5602 5599 5596 5594 5591 5588 5586 5583 5580 5578 5574 5571 5569 5566 5562 5560 5557 5554 5551 5547 5544 5541 5538
5623 5622 5621 5621 5620 5619 5618 5616 5614 5612 5610 5608 5606 5604 5602 5600 5597 5595 5593 5590 5587 5584 5581 5578 5576 5573 5570 5567 5564 5561 5558 5555 5553 5549 5546 5544 5541 5538 5535 5532 5528 5525 5522
5609 5608 5607 5606 5605 5604 5603 5601 5599 5597 5596 5594 5591 5589 5587 5585 5582 5580 5577 5575 5572 5569 5565 5562 5559 5557 5554 5550 5547 5544 5542 5539 5537 5535 5530 5528 5526 5523 5519 5516 5513 5509 5506
5595 5594 5593 5592 5591 5589 5588 5586 5584 5582 5581 5579 5577 5574 5572 5569 5566 5563 5561 5558 5556 5553 5550 5547 5544 5541 5537 5534 5531 5528 5526 5523 5520 5519 5516 5513 5510 5507 5505 5502 5498 5495 5492